Home > Weather > Galway > Past weeks

Flag for Ireland Past Weather in Galway, Ireland — Yesterday and Last 2 Weeks

Now
64 °F

Partly sunny.


Feels Like: 64 °F
Forecast: 58 / 69 °F
Wind: 9 mph from Southwest

Location: Shannon Airport

Current Time: Aug 29, 2016 at 7:13:21 PM

Latest Report: Aug 29, 2016 at 6:30 PM


Visibility: N/A

Pressure: 30.18 "Hg

Humidity: 88%

Dew Point: 61 °F

Location of GalwayLocation

Past Weather in Galway — Graph

°F

Galway Temperature Yesterday

Maximum temperature yesterday: 70 °F (at 6:00 PM)
Minimum temperature yesterday: 52 °F (at 6:00 AM)
Average temperature yesterday: 60 °F

High & Low Weather Summary for the Past Weeks

 TemperatureHumidityPressure
High77 °F (Aug 16, 1:30 PM)100% (Aug 18, 1:00 AM)30.27 "Hg (Aug 18, 1:00 AM)
Low50 °F (Aug 24, 6:30 AM)44% (Aug 15, 3:30 PM)29.12 "Hg (Aug 20, 12:00 AM)
Average61 °F83%29.92 "Hg
* Reported Aug 14 6:00 PM — Aug 29 6:00 PM, Galway, Weather by CustomWeather, © 2016

Note: Actual official high and low records may vary slightly from our data, if they occured in-between our weather recording intervals... More about our weather records

Advertising

Galway Weather History for the Previous 24 Hours

Scroll right to see more
 ConditionsComfort  
Time TempWeatherWind HumidityBarometerVisibility
6:00 PM
Mon, Aug 29
66 °FPartly sunny.9 mph78%30.18 "HgN/A
5:30 PM66 °FPartly sunny.13 mph83%30.18 "HgN/A
5:00 PM64 °FBroken clouds.10 mph83%30.18 "HgN/A
4:30 PM66 °FBroken clouds.12 mph78%30.18 "HgN/A
4:00 PM66 °FBroken clouds.12 mph83%30.18 "HgN/A
3:30 PM64 °FBroken clouds.13 mph88%30.18 "HgN/A
3:00 PM64 °FPartly sunny.10 mph88%30.18 "HgN/A
2:30 PM64 °FLow clouds.10 mph88%30.18 "HgN/A
2:00 PM63 °FDrizzle. Low clouds.9 mph88%30.21 "Hg4 mi
1:30 PM64 °FOvercast.9 mph83%30.21 "HgN/A
1:00 PM64 °FPartly sunny.6 mph78%30.18 "HgN/A
12:30 PM66 °FPartly sunny.5 mph73%30.18 "HgN/A
12:00 PM64 °FBroken clouds.6 mph73%30.18 "HgN/A
11:30 AM64 °FPartly sunny.5 mph73%30.18 "HgN/A
11:00 AM63 °FPartly sunny.6 mph73%30.18 "HgN/A
10:30 AM61 °FPartly sunny.7 mph77%30.18 "HgN/A
10:00 AM61 °FPartly sunny.8 mph77%30.18 "HgN/A
9:30 AM59 °FScattered clouds.7 mph82%30.18 "HgN/A
9:00 AM57 °FBroken clouds.5 mph88%30.18 "HgN/A
8:30 AM55 °FPartly sunny.5 mph94%30.18 "HgN/A
8:00 AM54 °FPartly sunny.5 mph94%30.18 "HgN/A
7:30 AM54 °FPartly cloudy.5 mph94%30.18 "Hg4 mi
7:00 AM54 °FFog.5 mph94%30.18 "Hg3 mi
6:30 AM54 °FFog.5 mph100%30.15 "Hg3 mi
6:00 AM55 °FFog.5 mph94%30.15 "Hg3 mi
5:30 AM55 °FFog.6 mph94%30.15 "Hg2 mi
5:00 AM55 °FFog.3 mph100%30.15 "Hg2 mi
4:30 AM55 °FFog.No wind100%30.15 "Hg1 mi
4:00 AM55 °FFog.5 mph100%30.15 "Hg1 mi
3:30 AM55 °FFog.5 mph100%30.15 "Hg1 mi
3:00 AM55 °FFog.3 mph94%30.15 "Hg2 mi
2:30 AM55 °FPassing clouds.3 mph94%30.15 "HgN/A
2:00 AM55 °FPassing clouds.No wind94%30.15 "HgN/A
1:30 AM55 °FPassing clouds.1 mph100%30.15 "HgN/A
1:00 AM57 °FPassing clouds.5 mph94%30.15 "HgN/A
12:30 AM57 °FPassing clouds.7 mph94%30.15 "HgN/A
12:00 AM57 °FPassing clouds.8 mph94%30.15 "HgN/A
11:30 PM
Sun, Aug 28
57 °FPassing clouds.6 mph94%30.15 "HgN/A
11:00 PM57 °FPassing clouds.8 mph94%30.15 "HgN/A
10:30 PM57 °FPassing clouds.7 mph94%30.12 "HgN/A
10:00 PM57 °FPassing clouds.6 mph94%30.12 "HgN/A
9:30 PM57 °FPassing clouds.7 mph94%30.12 "HgN/A
9:00 PM59 °FScattered clouds.7 mph88%30.12 "HgN/A
8:30 PM61 °FPartly sunny.7 mph83%30.09 "HgN/A
8:00 PM63 °FPartly sunny.7 mph77%30.09 "HgN/A
7:30 PM63 °FPartly sunny.9 mph77%30.09 "HgN/A
7:00 PM66 °FScattered clouds.12 mph64%30.07 "HgN/A
Weather by CustomWeather, © 2016

See weather overviewHow to use our weather pages